User: anonymous   Login
Location: Casalecchio di Reno
(44.4760°N, 11.2757°E)
Time: 13:03:02
(UTC+02:00)
Language:

QB50P2 - Orbit

View from above orbital plane
View from above orbital plane
View from above satellite
View from above satellite

Ground track
Ground track

The orbit data is extracted from the following two-line orbital elements,

1 40032U 14033Y   24169.85352460  .00005826  00000-0  49192-3 0  9994
2 40032  98.0053 122.3222 0010048 147.5003 212.6839 14.98483115542773
Epoch (UTC): 17 June 2024 20:29:04
Eccentricity: 0.0010048
inclination: 98.0053°
perigee height: 564 km
apogee height: 578 km
right ascension of ascending node: 122.3222°
argument of perigee: 147.5003°
revolutions per day: 14.98483115
mean anomaly at epoch: 212.6839°
orbit number at epoch: 54277

The dashed part of the orbit path shows where the satellite is in the earth's shadow,  

DLR